Location: Newark
(48.1333°N, 17.1000°E)
Time: 20:58:39
(UTC+00:00)

N. Korean satellite - Pass Details

Date: 01 February 2020
Orbit: 456 x 505 km, 97.2° (Epoch: 26 February)

Event Time Altitude Azimuth Distance (km) Brightness Sun altitude
Rises 04:16:14 0° 19° (NNE) 2,561 10.4 -20.8°
Reaches altitude 10° 04:18:24 10° 28° (NNE) 1,683 9.6 -20.5°
Maximum altitude 04:21:48 37° 98° (E) 777 8.1 -19.9°
Drops below altitude 10° 04:25:13 10° 167° (SSE) 1,693 9.5 -19.3°
Sets 04:27:24 0° 176° (S) 2,577 10.4 -19.0°
